[[{"header":{"parameterUnit":"m.s-1","parameterCategory":1,"la1":30.2991,"la2":30.254,"lo1":-89.0895,"lo2":-89.0444,"dy":0.0017,"dx":0.0017,"nx":28,"ny":28,"refTime":"2025-05-22T09:00:00:Z","depth":0,"parameterNumber":2,"parameterNumberName":"U-component_of_WINDS"},"data":[0,0,0,0,0,0,0,0,0,0,0,0,0,0,0,0,0,0,0,0,0,0,0,0,0,0,0,0,0,0,0,0,0,0,0,0,0,0,0,0,0,0,0,0,0,0,0,0,0,0,0,0,0,0,0,0,0,0,1.6211,1.6212,0,1.6265,1.6265,1.6266,1.6242,1.6241,1.624,1.6238,1.6296,1.6298,1.6301,0,0,0,0,0,0,0,0,0,0,0,0,0,1.6089,1.6092,1.6211,1.6212,1.6213,1.6265,1.6265,1.6266,1.6243,1.6241,1.6239,1.6238,1.6295,1.6298,1.6301,0,0,0,0,0,0,0,0,0,0,0,0,0,1.6142,1.6092,1.6211,1.6207,1.6207,1.6264,1.6265,1.6266,1.6243,1.6241,1.6239,1.6237,1.6294,1.6298,1.6302,1.6367,0,0,1.6315,1.6316,0,0,0,0,0,0,0,0,1.6139,1.6147,1.6207,1.6207,1.6208,1.6245,1.6243,1.63,1.6243,1.6229,1.6238,1.6236,1.6281,1.6286,1.63,1.637,1.6372,1.6315,1.6317,1.6319,1.632,0,0,0,0,0,0,0,1.6136,1.6145,1.6232,1.6208,1.6208,1.6203,1.6208,1.6254,1.6266,1.6231,1.6229,1.6235,1.628,1.6296,1.6301,1.6373,1.6315,1.6318,1.6321,1.6323,1.6495,1.6497,0,0,0,0,0,0,1.6132,1.6142,1.6231,1.6234,1.6168,1.6206,1.6212,1.6235,1.6265,1.6268,1.6237,1.6234,1.629,1.6296,1.6303,1.6379,1.6319,1.6323,1.6325,1.6493,1.6496,1.6498,0,0,0,0,0,0,1.6129,1.614,1.6229,1.6187,1.6198,1.6211,1.6236,1.6237,1.6253,1.627,1.6272,1.6251,1.6289,1.6297,1.635,1.6381,1.6325,1.6329,1.6491,1.6494,1.6497,1.6533,0,0,0,0,0,0,1.6126,1.6139,1.6164,1.6188,1.62,1.6275,1.6238,1.6239,1.626,1.6256,1.6283,1.6286,1.6288,1.6344,1.6354,1.6385,1.6332,1.6488,1.6492,1.6496,1.6529,1.6537,1.6543,0,0,0,0,0,1.6122,1.6174,1.6166,1.6177,1.6232,1.6277,1.6284,1.6284,1.6262,1.6287,1.6298,1.6285,1.6376,1.635,1.6361,1.6394,1.6486,1.6491,1.6496,1.6526,1.6535,1.6543,0,0,0,0,0,0,1.6155,1.6177,1.6168,1.6229,1.6251,1.6273,1.6304,1.6295,1.6324,1.632,1.6319,1.6326,1.638,1.6393,1.6363,1.6457,1.6428,1.6435,1.6447,1.6456,1.6463,1.6459,1.6335,0,0,0,0,0,1.6169,1.6203,1.6221,1.6273,1.6284,1.6292,1.6312,1.631,1.6333,1.6342,1.6357,1.638,1.6413,1.6435,1.6467,1.6531,1.6535,1.6559,1.6566,1.6572,1.6578,1.6609,1.6619,1.6514,1.6514,1.6513,0,0,1.6199,1.6215,1.6237,1.628,1.6296,1.6331,1.63,1.6339,1.6365,1.6348,1.6398,1.641,1.6436,1.6493,1.6519,1.6505,1.6608,1.6578,1.6582,1.6585,1.6615,1.6625,1.6634,1.6517,1.6516,1.6516,0,0,1.6271,1.6287,1.6331,1.6348,1.6373,1.6377,1.6388,1.641,1.6416,1.6466,1.6454,1.6485,1.6543,1.6561,1.6578,1.6653,1.6642,1.6664,1.6702,1.6733,1.6741,1.6749,1.6774,1.6783,1.667,1.667,1.667,0,1.6305,1.6357,1.6355,1.6394,1.6412,1.6397,1.6441,1.6458,1.6492,1.6505,1.6488,1.6559,1.6576,1.6636,1.6654,1.6669,1.668,1.6661,1.674,1.6747,1.6754,1.6778,1.6788,1.6673,1.6672,1.6672,1.6672,0,1.6397,1.6433,1.6465,1.6497,1.6519,1.6561,1.6564,1.6587,1.6582,1.6589,1.6638,1.6657,1.6691,1.6706,1.6703,1.6765,1.6755,1.674,1.671,1.6767,1.6789,1.6798,1.6676,1.6675,1.6674,1.6674,0,0,1.6493,1.652,1.6532,1.6545,1.657,1.6598,1.6638,1.667,1.6688,1.6712,1.6745,1.6793,1.6778,1.6797,1.6795,1.6823,1.6879,1.6803,1.6804,1.6815,1.6946,1.6957,1.6967,1.6872,1.6874,1.6875,1.6943,0,1.6565,1.6634,1.6632,1.6696,1.6728,1.6713,1.6747,1.6766,1.6773,1.6801,1.6808,1.6841,1.682,1.6831,1.6857,1.6866,1.6905,1.6862,1.6901,1.6903,1.6894,1.6979,1.6991,1.7055,1.6952,1.6954,1.6955,0,1.6659,1.6684,1.675,1.6768,1.6781,1.6812,1.684,1.6867,1.6888,1.689,1.691,1.6904,1.6943,1.6913,1.6967,1.6938,1.6954,1.6961,1.6963,1.6966,1.6932,1.6983,1.7075,1.7084,1.6969,1.6968,1.6967,0,1.672,1.677,1.6815,1.6827,1.6849,1.6871,1.6881,1.69,1.6918,1.6943,1.6954,1.6984,1.6999,1.7022,1.7023,1.7002,1.7077,1.7048,1.708,1.708,1.7096,1.7095,1.7191,1.7109,1.7109,1.7109,1.7108,0,1.68,1.6841,1.6842,1.687,1.6915,1.6912,1.6956,1.6965,1.6981,1.701,1.6999,1.7027,1.7027,1.7055,1.7057,1.71,1.7108,1.7111,1.711,1.7111,1.711,1.7121,1.7116,1.7111,1.7111,1.711,1.711,0,1.6875,1.6878,1.6926,1.6942,1.6947,1.6979,1.6993,1.7019,1.7023,1.706,1.7068,1.7076,1.7108,1.7111,1.715,1.715,1.7202,1.7198,1.7195,1.7193,1.7225,1.7221,1.733,1.7343,1.7254,1.7255,1.7255,0,1.6926,1.6956,1.6975,1.6992,1.7003,1.7033,1.7051,1.7049,1.7068,1.7092,1.7115,1.7145,1.717,1.7221,1.723,1.7259,1.7254,1.729,1.7259,1.7257,1.7253,1.725,1.7252,1.7296,1.7297,1.7298,1.7299,0,1.7014,1.7013,1.7039,1.7064,1.7085,1.7106,1.7125,1.7141,1.7141,1.7163,1.7194,1.7213,1.725,1.728,1.7307,1.7318,1.7308,1.7309,1.7317,1.7317,1.7313,1.7314,1.721,1.7306,1.7305,1.7305,1.7304,1.7304,1.7077,1.7103,1.7119,1.7147,1.7161,1.7178,1.7202,1.7209,1.7235,1.7264,1.7261,1.7296,1.7314,1.7349,1.7361,1.7388,1.7376,1.739,1.7393,1.7395,1.7397,1.731,1.7394,1.7393,1.7393,1.7393,1.7393,0,1.7164,1.7173,1.7199,1.7224,1.7246,1.7233,1.7253,1.7272,1.7302,1.7319,1.7342,1.7377,1.7406,1.7416,1.7444,1.7463,1.7459,1.747,1.7468,1.747,1.7408,1.7396,1.7473,1.7473,1.7473,1.7473,1.7473,1.7473,1.7211,1.7252,1.7253,1.73,1.7309,1.7342,1.7354,1.7369,1.7382,1.7421,1.7444,1.745,1.7464,1.7492,1.7517,1.7519,1.7529,1.7542,1.7542,1.7483,1.7475,1.7468,1.7457,1.7545,1.7545,1.7603,1.7603,1.7604]},{"header":{"parameterUnit":"m.s-1","parameterCategory":1,"la1":30.2991,"la2":30.254,"lo1":-89.0895,"lo2":-89.0444,"dy":0.0017,"dx":0.0017,"nx":28,"ny":28,"refTime":"2025-05-22T09:00:00:Z","depth":0,"parameterNumber":3,"parameterNumberName":"V-component_of_WINDS"},"data":[0,0,0,0,0,0,0,0,0,0,0,0,0,0,0,0,0,0,0,0,0,0,0,0,0,0,0,0,0,0,0,0,0,0,0,0,0,0,0,0,0,0,0,0,0,0,0,0,0,0,0,0,0,0,0,0,0,0,2.9885,2.9885,0,2.9949,2.995,2.9951,2.9937,2.9936,2.9935,2.9934,2.9996,2.9999,3.0001,0,0,0,0,0,0,0,0,0,0,0,0,0,2.9744,2.9747,2.9884,2.9885,2.9886,2.9949,2.995,2.9951,2.9938,2.9936,2.9935,2.9933,2.9995,2.9998,3.0002,0,0,0,0,0,0,0,0,0,0,0,0,0,2.9807,2.9748,2.9884,2.9887,2.9888,2.9949,2.995,2.9951,2.9938,2.9936,2.9934,2.9933,2.9994,2.9998,3.0002,3.0063,0,0,3.0015,3.0016,0,0,0,0,0,0,0,0,2.9803,2.9812,2.9886,2.9887,2.9888,2.9934,2.9923,2.9988,2.9938,2.9919,2.9934,2.9932,2.9976,2.9982,2.9998,3.0065,3.0068,3.0015,3.0017,3.0019,3.002,0,0,0,0,0,0,0,2.9799,2.9809,2.991,2.9887,2.9889,2.9884,2.989,2.9935,2.9956,2.9921,2.992,2.9928,2.9977,2.9994,2.9999,3.0069,3.0015,3.0018,3.0021,3.0023,3.0187,3.0189,0,0,0,0,0,0,2.9794,2.9805,2.9908,2.9912,2.9841,2.9887,2.9895,2.9921,2.9956,2.996,2.9929,2.9927,2.9988,2.9994,3.0001,3.0073,3.0019,3.0023,3.0025,3.0186,3.0188,3.019,0,0,0,0,0,0,2.9791,2.9803,2.9905,2.9858,2.9871,2.9892,2.9921,2.9923,2.994,2.9963,2.9966,2.9943,2.9986,2.9995,3.0047,3.0075,3.0025,3.0029,3.0183,3.0186,3.0189,3.0219,0,0,0,0,0,0,2.9787,2.9802,2.9827,2.9859,2.9874,2.9952,2.9922,2.9925,2.9948,2.9945,2.9977,2.998,2.9986,3.0041,3.0051,3.008,3.0032,3.0181,3.0185,3.0188,3.0215,3.0222,3.0228,0,0,0,0,0,2.9782,2.9832,2.9828,2.9841,2.9905,2.9954,2.9962,2.9969,2.995,2.9974,2.9988,2.9979,3.0071,3.0047,3.0058,3.0088,3.0179,3.0184,3.0188,3.0212,3.0221,3.0228,0,0,0,0,0,0,2.9802,2.9837,2.9833,2.9895,2.9922,2.9952,2.9982,2.9978,3.0009,3.0005,3.0011,3.0018,3.007,3.0084,3.0057,3.0147,3.0122,3.0129,3.0137,3.0145,3.0151,3.0146,3.0035,0,0,0,0,0,2.9814,2.9852,2.9879,2.9932,2.9945,2.9961,2.9983,2.9986,3.0013,3.0024,3.0042,3.0067,3.0101,3.0124,3.0157,3.0217,3.0223,3.0243,3.0249,3.0255,3.026,3.0291,3.03,3.0204,3.0204,3.0204,0,0,2.9838,2.9862,2.9885,2.9936,2.9957,2.9995,2.9971,3.0012,3.004,3.0029,3.008,3.0094,3.0122,3.0178,3.0204,3.0192,3.0288,3.026,3.0264,3.0267,3.0297,3.0306,3.0314,3.0207,3.0207,3.0206,0,0,2.9902,2.9924,2.9969,2.9991,3.0023,3.0033,3.0044,3.0075,3.0084,3.0135,3.0127,3.0159,3.0218,3.0239,3.0257,3.0326,3.0318,3.0337,3.037,3.04,3.0408,3.0415,3.0438,3.0447,3.0342,3.0342,3.0342,0,2.9927,2.9986,2.9993,3.0035,3.0056,3.005,3.0094,3.0114,3.0155,3.0169,3.0155,3.0229,3.0248,3.0308,3.0325,3.034,3.0351,3.0333,3.0407,3.0413,3.042,3.0442,3.0451,3.0344,3.0344,3.0344,3.0344,0,3.0015,3.0055,3.0087,3.0128,3.0153,3.0196,3.0208,3.0233,3.0233,3.0244,3.0294,3.0316,3.0353,3.0367,3.0368,3.0427,3.0418,3.0405,3.038,3.0431,3.0452,3.0461,3.0347,3.0346,3.0346,3.0345,0,0,3.0094,3.0137,3.0149,3.0166,3.0201,3.0231,3.0273,3.031,3.033,3.0357,3.0391,3.0441,3.0429,3.045,3.0452,3.0479,3.053,3.0462,3.0463,3.0473,3.0595,3.0604,3.0615,3.0526,3.0527,3.0529,3.0593,0,3.016,3.0235,3.0242,3.0308,3.0344,3.0338,3.0374,3.0398,3.0409,3.0439,3.0451,3.0486,3.0468,3.048,3.0506,3.0519,3.0555,3.0514,3.0556,3.0557,3.0548,3.0626,3.0636,3.0695,3.0601,3.0603,3.0604,0,3.0247,3.0278,3.0349,3.0377,3.0392,3.0425,3.0458,3.0488,3.0514,3.052,3.0543,3.0541,3.0582,3.0555,3.061,3.0582,3.0599,3.0607,3.061,3.0614,3.0583,3.0631,3.0715,3.0723,3.0617,3.0616,3.0615,0,3.0296,3.0356,3.0405,3.0421,3.0455,3.0478,3.0493,3.0517,3.0538,3.0567,3.058,3.0613,3.0631,3.0655,3.0661,3.0641,3.0716,3.069,3.0721,3.072,3.0736,3.0735,3.0823,3.0748,3.0748,3.0748,3.0748,0,3.0369,3.0412,3.0428,3.0458,3.0505,3.0512,3.0558,3.0571,3.0593,3.0624,3.062,3.065,3.0656,3.0686,3.0691,3.0735,3.0744,3.0748,3.0749,3.0749,3.0748,3.0759,3.0755,3.075,3.075,3.0749,3.0749,0,3.0432,3.0444,3.0498,3.0526,3.0533,3.0567,3.059,3.0618,3.0628,3.0668,3.0677,3.0693,3.0728,3.0736,3.0778,3.0781,3.0833,3.083,3.0825,3.0824,3.0854,3.0851,3.0953,3.0966,3.0883,3.0884,3.0884,0,3.0477,3.051,3.0542,3.0563,3.0579,3.0614,3.0636,3.0642,3.0665,3.0696,3.072,3.0755,3.0783,3.0839,3.0853,3.0884,3.0881,3.0915,3.0886,3.0884,3.0881,3.0878,3.0881,3.092,3.0921,3.0922,3.0922,0,3.0556,3.0561,3.0593,3.0627,3.0653,3.068,3.0705,3.0722,3.0732,3.0757,3.0794,3.0816,3.0858,3.0892,3.0923,3.0937,3.0931,3.0931,3.094,3.0939,3.0935,3.0937,3.0839,3.0929,3.0928,3.0928,3.0927,3.0927,3.0611,3.064,3.0666,3.0702,3.0722,3.0745,3.0773,3.0786,3.0817,3.0853,3.0855,3.0894,3.0917,3.0959,3.0974,3.1003,3.0993,3.1006,3.1009,3.1012,3.1014,3.093,3.1009,3.1009,3.1009,3.1009,3.1008,0,3.0689,3.0706,3.0738,3.0775,3.0802,3.0795,3.0822,3.0845,3.088,3.0903,3.0931,3.0971,3.1004,3.102,3.1052,3.1072,3.107,3.108,3.1078,3.1081,3.1022,3.1011,3.1081,3.1081,3.1081,3.1081,3.1081,3.1081,3.0733,3.0781,3.0788,3.0844,3.086,3.0899,3.0915,3.0936,3.0955,3.1001,3.1028,3.1039,3.1058,3.1091,3.112,3.1124,3.1135,3.1147,3.1149,3.1093,3.1086,3.1078,3.1068,3.1149,3.1149,3.1205,3.1206,3.1206]}]]